STARLINK-2463 (48122 NORAD) Tracking and Keplerian Element Data

This shows tracking and keplerian element data for the satellite.

Feedback or suggestion? Click here.




ElementValue
Catalog48122
NameSTARLINK-2463
Epoch Orbit197
Epoch Day170.58334491
Epoch Year2021
RAAN339.1322
Inclination53.0471
Eccentricity0.000137
Argument of Perigee67.3183
Mean Anonmoly105.9965
Mean Motion15.49198746
Decay Rate-0.01080352
L11 48122U 21027AG 21170.58334491 -.01080352 00000-0 -21521-1 0 9990
L22 48122 53.0471 339.1322 0001370 67.3183 105.9965 15.49198746 1977

Live tracking and technical data element details for STARLINK-2463 (NORAD 48122). STARLINK-2463 can be tracked NOW for your location showing map with azimuth and elevation plus other details from your city location.

Track the satellite on the map from your city or location and see movement details for azimuth, elevation, latitude, longitude, range, height, and movement on the map or in text.







IsCatalogInMostPopularTable: catalog: 48122, numindb: 35
Update: records affected: 1



GetName: 48122 STARLINK-2463

Hit Count: updated at: Mon, 21 Jun 2021 03:56:05 GMT